DateTimeUTC,F1_A11,F1_S11,BsB_S11,BsG_S11,BsR_S11,BbsB_S11,BbsG_S11,BbsR_S11,BaB_A11,BaG_A11,BaR_A11,Tu_S11,T_S11,Uu_S11,U_S11,P_S11,T1_A11
2021-02-01T22:00:00Z,00000200,21000000,,,,,,,-000.44,-000.59,-000.40,15.8,23.3,,00.0,0624.7,30.9
2021-02-01T22:01:00Z,00000200,21000000,,,,,,,-000.10,-000.07,0000.17,15.8,23.3,,00.0,0624.7,30.9
2021-02-01T22:02:00Z,00000200,21000000,,,,,,,0000.72,0000.40,-000.01,15.8,23.3,,00.0,0624.7,30.9
2021-02-01T22:03:00Z,00000200,61000000,,,,,,,0000.03,0000.23,0000.82,15.8,23.3,,00.0,0624.7,30.9
2021-02-01T22:04:00Z,00000200,41000000,-000.02,-000.01,0000.05,0000.05,-000.13,0000.13,0000.57,0000.35,-000.08,16.2,23.2,,00.0,0625.5,30.9
2021-02-01T22:05:00Z,00000200,01000000,0000.48,0000.31,0000.09,-000.08,-000.05,0000.31,-000.21,0000.14,0000.17,16.3,23.2,,00.0,0625.6,30.9
2021-02-01T22:06:00Z,00000200,01000000,-000.05,-000.00,-000.15,-000.17,-000.13,0000.21,-000.06,0000.04,-000.11,16.4,23.2,,00.0,0625.6,30.9
2021-02-01T22:07:00Z,00000200,01000000,0000.42,-000.04,-000.08,-000.17,-000.18,0000.00,0000.10,0000.16,-000.12,16.4,23.2,,00.0,0625.6,30.9
2021-02-01T22:08:00Z,00000200,01000000,-000.18,0000.23,0000.02,0000.38,-000.32,0000.21,0000.27,0000.05,0000.26,16.4,23.1,,00.0,0625.6,30.9
2021-02-01T22:09:00Z,00000200,01000000,0000.81,0000.16,0000.22,0000.19,0000.02,0000.18,0000.06,0000.23,0000.14,16.4,23.1,,00.0,0625.5,30.9
2021-02-01T22:10:00Z,00000200,01000000,0000.48,-000.08,0000.00,0000.09,-000.27,-000.03,-000.04,-000.25,0000.06,16.3,23.1,,00.0,0625.6,30.9
2021-02-01T22:11:00Z,00000200,01000000,0000.86,-000.14,0000.13,0000.52,-000.09,-000.01,0000.29,0000.25,-000.15,16.2,23.1,,00.0,0625.6,30.9
2021-02-01T22:12:00Z,00000200,01000000,0000.19,-000.13,0000.03,0000.30,0000.07,0000.16,-000.19,-000.54,0000.14,16.2,23.1,,00.0,0625.6,30.9
2021-02-01T22:13:00Z,00000200,01000000,0000.40,0000.17,-000.17,0000.20,-000.08,-000.06,0000.46,0000.58,-000.32,16.2,23.1,,00.0,0625.6,30.9
2021-02-01T22:14:00Z,00000200,01000000,0000.32,0000.06,-000.08,-000.19,-000.09,0000.08,0000.06,0000.27,0000.81,16.1,23.0,,00.0,0625.6,30.9
2021-02-01T22:15:00Z,00000200,01000000,0000.03,0000.18,0000.07,-000.04,-000.04,0000.09,-000.57,-000.77,-000.52,16.1,23.0,,00.0,0625.6,30.9
2021-02-01T22:16:00Z,00000200,01000000,-000.43,-000.17,-000.01,0000.01,-000.44,0000.51,0000.57,0000.17,0000.40,16.1,23.0,,00.0,0625.6,30.9
2021-02-01T22:17:00Z,00000200,01000000,0000.54,-000.42,-000.08,0000.36,0000.02,0000.33,0000.18,0000.31,-000.17,16.1,23.0,,00.0,0625.6,30.9
2021-02-01T22:18:00Z,00000200,01000000,0000.55,-000.22,-000.05,0000.26,-000.31,0000.29,-000.07,0000.41,0000.50,16.2,23.0,,00.0,0625.5,30.9
2021-02-01T22:19:00Z,00000200,01000000,-000.20,0000.17,0000.21,0000.20,-000.08,-000.07,0000.19,0000.23,0000.04,16.3,23.1,,00.0,0625.6,30.9
2021-02-01T22:20:00Z,00000200,01000000,0000.58,0000.16,0000.26,0000.59,0000.16,0000.14,-000.04,-000.19,-000.22,16.4,23.1,,00.0,0625.5,30.9
2021-02-01T22:21:00Z,00000200,01000000,0000.13,-000.15,-000.16,0000.39,-000.00,0000.00,0000.28,0000.27,-000.09,16.4,23.1,,00.0,0625.5,30.9
2021-02-01T22:22:00Z,00000200,01000000,-000.35,0000.32,0000.10,-000.14,-000.42,0000.33,0000.02,0000.23,0000.28,16.4,23.1,,00.0,0625.5,30.9
2021-02-01T22:23:00Z,00000200,01000000,0000.36,-000.23,0000.19,0000.41,0000.01,0000.31,0000.12,-000.18,-000.15,16.3,23.1,,00.0,0625.5,30.9
2021-02-01T22:24:00Z,00000200,01000000,0000.51,0000.14,0000.10,0000.34,-000.15,0000.33,-000.06,-000.12,-000.08,16.3,23.1,,00.0,0625.5,30.9
2021-02-01T22:25:00Z,00000200,01000000,0000.18,0000.22,0000.06,0000.64,-000.04,0000.11,-000.15,0000.12,0000.47,16.3,23.0,,00.0,0625.5,30.9
2021-02-01T22:26:00Z,00000200,01000000,0000.11,-000.09,0000.19,-000.14,-000.03,0000.13,0000.47,0000.49,-000.24,16.2,23.0,,00.0,0625.5,30.9
2021-02-01T22:27:00Z,00000200,01000000,0000.59,0000.15,0000.00,0000.80,-000.12,0000.28,-000.09,-000.31,0000.09,16.2,23.0,,00.0,0625.4,30.9
2021-02-01T22:28:00Z,00000200,01000000,-000.42,0000.11,-000.23,0000.35,-000.26,0000.06,0000.48,0000.18,0000.20,16.1,23.0,,00.0,0625.4,30.9
2021-02-01T22:29:00Z,00000200,01000000,0000.37,0000.14,-000.03,0000.22,0000.03,0000.05,-000.14,0000.31,-000.10,16.1,23.0,,00.0,0625.4,30.9
2021-02-01T22:30:00Z,00000200,01000000,0000.11,0000.13,-000.11,0000.22,0000.02,0000.06,0000.50,-000.02,0000.30,16.0,22.9,,00.0,0625.4,30.9
2021-02-01T22:31:00Z,00000200,01000000,0000.34,-000.21,-000.08,0000.22,0000.15,0000.08,-000.50,0000.10,-000.04,16.1,22.9,,00.0,0625.4,30.9
2021-02-01T22:32:00Z,00000200,01000000,0000.48,-000.24,0000.12,0000.12,-000.09,0000.28,0000.60,0000.06,0000.03,16.1,22.9,,00.0,0625.4,30.9
2021-02-01T22:33:00Z,00000200,01000000,0000.69,-000.27,0000.05,0000.50,0000.08,-000.03,0000.14,0000.27,0000.42,16.2,23.0,,00.0,0625.5,30.9
2021-02-01T22:34:00Z,00000200,01000000,0000.41,-000.15,-000.17,0000.30,-000.24,0000.10,-000.11,-000.10,0000.17,16.3,23.0,,00.0,0625.5,30.9
2021-02-01T22:35:00Z,00000200,01000000,0000.22,-000.14,-000.15,0000.27,-000.23,0000.19,-000.08,0000.63,-000.27,16.4,23.0,,00.0,0625.5,30.9
2021-02-01T22:36:00Z,00000200,01000000,0000.32,-000.07,-000.11,0000.52,0000.09,0000.35,0000.15,-000.36,0000.31,16.4,23.1,,00.0,0625.5,30.9
2021-02-01T22:37:00Z,00000200,01000000,0000.39,-000.19,0000.01,0000.26,0000.13,0000.35,0000.11,0000.20,-000.46,16.5,23.1,,00.0,0625.5,30.9
2021-02-01T22:38:00Z,00000200,01000000,-000.30,-000.17,-000.08,-000.01,-000.11,0000.09,0000.24,0000.30,0000.15,16.4,23.1,,00.0,0625.5,31.0
2021-02-01T22:39:00Z,00000200,01000000,0000.67,-000.03,-000.01,0000.02,0000.01,0000.05,-000.29,-000.05,0000.25,16.4,23.1,,00.0,0625.5,30.9
2021-02-01T22:40:00Z,00000200,01000000,0000.04,0000.02,0000.06,0000.15,-000.06,0000.18,0000.39,-000.29,0000.16,16.4,23.1,,00.0,0625.4,30.9
2021-02-01T22:41:00Z,00000200,01000000,0000.26,-000.07,0000.04,-000.20,-000.21,0000.11,0000.07,0000.53,-000.01,16.3,23.0,,00.0,0625.4,30.9
2021-02-01T22:42:00Z,00000200,01000000,0000.57,0000.07,0000.02,-000.30,-000.19,0000.44,0000.14,-000.37,0000.03,16.3,23.0,,00.0,0625.4,30.9
2021-02-01T22:43:00Z,00000200,01000000,0000.58,0000.15,-000.03,-000.41,0000.16,0000.10,0000.04,0000.40,-000.16,16.2,23.0,,00.0,0625.4,30.9
2021-02-01T22:44:00Z,00000200,01000000,0000.35,0000.11,0000.18,0000.35,-000.40,-000.08,0000.35,0000.07,0000.16,16.2,23.0,,00.0,0625.4,30.9
2021-02-01T22:45:00Z,00000200,01000000,-000.50,-000.35,-000.03,0000.42,0000.03,0000.29,-000.74,-000.32,0000.17,16.2,23.0,,00.0,0625.4,30.9
2021-02-01T22:46:00Z,00000200,01000000,0000.51,0000.04,0000.02,-000.50,0000.00,0000.02,0000.41,0000.16,0000.07,16.2,23.0,,00.0,0625.4,30.9
2021-02-01T22:47:00Z,00000200,01000000,0000.41,0000.15,0000.03,0000.04,-000.09,0000.08,0000.23,0000.13,-000.23,16.2,22.9,,00.0,0625.4,30.9
2021-02-01T22:48:00Z,00000200,01000000,0001.04,0000.06,-000.07,0000.05,-000.11,0000.34,-000.00,-000.33,0000.51,16.3,23.0,,00.0,0625.4,30.9
2021-02-01T22:49:00Z,00000200,01000000,0000.49,0000.24,-000.05,0000.47,-000.30,0000.04,0000.04,0000.64,-000.18,16.4,23.0,,00.0,0625.5,30.9
2021-02-01T22:50:00Z,00000200,01000000,0001.12,0000.07,0000.24,0000.70,0000.13,0000.24,-000.18,-000.12,0000.07,16.5,23.1,,00.0,0625.5,30.9
2021-02-01T22:51:00Z,00000200,01000000,0000.48,-000.03,0000.14,0000.21,0000.13,0000.07,0000.08,0000.09,0000.09,16.5,23.2,,00.0,0625.5,31.0
2021-02-01T22:52:00Z,00000200,01000000,0000.06,0000.21,0000.08,0000.10,-000.09,0000.23,-000.09,0000.02,0000.08,16.6,23.2,,00.0,0625.6,31.0
2021-02-01T22:53:00Z,00000200,01000000,-000.14,-000.05,0000.13,0000.21,0000.17,0000.04,0000.17,0000.02,0000.27,16.7,23.2,,00.0,0625.5,31.0
2021-02-01T22:54:00Z,00000200,01000000,0000.37,0000.07,-000.21,0000.05,-000.07,0000.03,0000.27,0000.12,-000.31,16.8,23.3,,00.0,0625.5,31.0
2021-02-01T22:55:00Z,00000200,01000000,0000.14,0000.23,-000.02,-000.15,0000.20,0000.08,0000.15,0000.15,0000.27,16.8,23.3,,00.0,0625.5,31.0
2021-02-01T22:56:00Z,00000200,01000000,-000.02,0000.17,0000.01,0000.01,-000.01,0000.09,0000.09,-000.00,-000.02,16.7,23.3,,00.0,0625.5,31.0
2021-02-01T22:57:00Z,00000200,41000000,,,,,,,-000.17,-000.43,-000.34,16.8,23.3,,00.0,0625.5,31.0
2021-02-01T22:58:00Z,00000200,61000000,,,,,,,0000.12,0000.34,0000.43,16.3,23.4,,00.0,0624.6,31.0
2021-02-01T22:59:00Z,00000200,21000000,,,,,,,-000.35,0000.10,-000.24,16.2,23.5,,00.0,0624.6,30.9
